Погода Рудня

Погода Рудня : погода сейчас, прогноз погоды и архив. Всё, что Вы хотите узнать о погоде Рудня!

Поиск расширенной информации на нашем сайте:

Другие новости

Новости СМИ2

Главная страница сайта

Новости сайта

03.07.2017

Напоминаем, что на нашем специализированном сайте Метеоцентр.Азия вы можете получить высокодетализированные автоматические прогнозы погоды по пунктам России, СНГ и мира в авиационном формате (включающие направление и скорость ветра, видимость, явления погоды, количество и форму облачности, нижнюю и верхнюю границу облачности).


Погода Рудня - сегодня

Время (UTC), дата Ветер
(°,м/с) 
Видим.   Явления Облачность Т
(°С)
Тd
(°С)
f(%) Тe
(°С)
Pmin
(гПа)
dP
(гПа)
Po
(мм)
O2
(г/м3)
Тmin Tmax R s Состояние
почвы
18 17.11.17 310 (СЗ) 10 км    9/9 600 м 
[Sc]
-0.5 -1.8 91 1029  0.6  761  307           
21 17.11.17 тихо ()   10 км    ясно 
-2.3 -3.3 93 -2  1029.2  0.6  761  309           
00 18.11.17 120 (ЮВ) 10 км    ясно 
-3.7 -4.6 93 -3  1028.8  -0.4  760  311           
03 18.11.17 100 (В) 10 км    ясно 
-4.4 -5.3 93 -4  1028.7  -0.2  760  312  -4.4         
06 18.11.17 120 (ЮВ) 10 км    8/0 средняя 
[Ac trans]
-2.4 -3.6 91 -2  1028.6  760  309  -4.6         
09 18.11.17 210 (ЮЗ) 10 км    8/0 средняя 
[Ac trans]
+3.7 -1.5 69 +3  1027.9  -0.4  760  302           
12 18.11.17 150 (ЮВ) 10 км    10/10 600 м 
[Ac As]
+2.7 -1.1 76 +3  1026.8  -1.2  759  303           
15 18.11.17 120 (ЮВ) 10 км    9/9 600 м 
[Sc]
+0.4 -2.2 83 +1  1026.2  -0.7  759  305    +4.1       
18 18.11.17 110 (В) 10 км    ясно 
-1.5 -2.6 92 -1  1025.9  -0.4  758  308           
21 18.11.17 090 (В) 10 км    ясно 
-2.5 -3.5 93 -2  1024.9  -1.1  757  308           
00 19.11.17 120 (ЮВ) 10 км    9/9 600 м 
[Sc]
-0.8 -2.2 90 -2  1023.2  -1.5  756  306           
03 19.11.17 120 (ЮВ) 10 км    9/9 600 м 
[Sc]
+0.7 -0.7 90 -1  1021.7  -1.4  755  304  -2.5         
06 19.11.17 130 (ЮВ) 10 км    10/10 600 м 
[Sc]
+1.4 -0 90 +1  1021  -0.7  755  303           
09 19.11.17 140 (ЮВ) 10 км    10/10 600 м 
[Sc]
+3.2 +1.1 86 +2  1019.4  -1.4  754  300           
12 19.11.17 140 (ЮВ) 10 км    10/10 600 м 
[Sc]
+3.7 +1.9 88 +2  1018.1  -1.3  753  299           
15 19.11.17 140 (ЮВ) 10 км    10/10 600 м 
[St]
+3.9 +1.9 87 +3  1017.1  -1  752  298    +4.1       
18 19.11.17 150 (ЮВ) 10 км    10/10 600 м 
[St]
+4 +2.1 87 +4  1016.6  -0.4  752  298           
21 19.11.17 150 (ЮВ) 10 км    10/10 600 м 
[St]
+4.8 +3.9 94 +4  1016.3  -0.3  751  297           
00 20.11.17 150 (ЮВ) 10 км    10/10 600 м 
[St]
+5.4 +4.7 95 +5  1015.6  -0.3  751  296           
03 20.11.17 150 (ЮВ) 10 км  слаб. морось  10/10 600 м 
[St]
+5.3 +4.5 95 +4  1015.2  -0.4  751  296  +3.7    0.7     
06 20.11.17 150 (ЮВ) 10 км  слаб. морось  10/10 600 м 
[St]
+5.4 +4.6 95 +5  1015.8  0.5  751  296           
09 20.11.17 140 (ЮВ) 10 км  слаб. морось  10/10 600 м 
[St]
+6.3 +5.2 93 +5  1014.6  -1  750  295           
12 20.11.17 150 (ЮВ) 10 км  {морось}  10/10 600 м 
[St]
+7.3 +6.2 93 +6  1013.5  -1  749  293           
15 20.11.17 130 (ЮВ) 10 км    10/10 600 м 
[St]
+6.1 +4.3 88 +5  1013.2  -0.4  749  295    +7.4  0.6     
18 20.11.17 130 (ЮВ) 10 км    10/10 600 м 
[St]
+5.7 +2.9 82 +5  1012.5  -0.7  749  295           
Время (UTC), дата Ветер
(°,м/с) 
Видим.   Явления Облачность Т
(°С)
Тd
(°С)
f(%) Тe
(°С)
Pmin
(гПа)
dP
(гПа)
Po
(мм)
O2
(г/м3)
Тmin Tmax R s Состояние
почвы

Для получения пояснительной информации подведите курсор к названию столбца.

ПОГОДА Рудня - архив

Всё, что Вы хотите узнать о погоде Рудня - удобно и подробно!

Выберите нужную дату (начиная с 1 января 2015* года) и нажмите кнопку "Найти".
Будут отображены архивные сводки погоды по пункту Рудня, начиная с указанной даты.


Отображать данные в формате CSV (для использования в таблицах Excel)


Внимание! Наш архив погоды предназначен исключительно для личного некоммерческого использования в познавательных целях. Если Вам необходимы официальные справки о состоянии погоды (для производственных, юридических, коммерческих и т.п. целей), обращайтесь в органы Росгидромета.

*Примечание: данная дата относится к архиву по метеостанциям СССР (Россия, СНГ, Балтия).
Архив по метеостанциям Зарубежной Европы и Азии (кроме Китая) хранится 10 дней, по другим регионам земного шара (Китай, Африка, Америка, Австралия, Океания) - 1 день.

Рудня - район местоположения метеостанции


Название, широта, долгота, высота метеостанции:
Рудня 50.8°ш. 44.6°д. 114 м над ур. моря [Российская Федерация]

Дополнительная информация

В oтличие oт бoльшинства пoгoдных сайтoв мы публикуем пoдрoбную метеoинфoрмацию в детальнoм прoфессиoнальнoм фoрмате.

Характеристики температуры и влажнoсти вoздуха измеряются на высoте 2 м в тени вдали oт зданий и деревьев.
Скoрoсть ветра измеряется на высoте 10 м (на урoвне рoста челoвека скoрoсть ветра ниже в 1.5-2 раза). Если метеoстанция нахoдится в гoрoде или в лесу, тo скoрoсть ветра занижена на 2-4 м/с пo сравнению с oткрытым местoм. Скoрoсть ветра над акватoриями крупных рек и oзёр, а также на вершинах хoлмoв на 2-5 м/с выше, чем в oбычных услoвиях.
Атмoсфернoе давление в разных тoчках местнoсти мoжет значительнo oтличаться oт давления на метеoстанции, в зависимoсти oт услoвий рельефа (при пoдъёме на 10 м давление пoнижается примернo на 1 мм рт.ст.).